User: anonymous   Login
Location: Ay?beleni
(36.6500°N, 30.3000°E)
Time: 11:41:15
(UTC+00:00)
Language:

Envisat - Orbit

View from above orbital plane
View from above orbital plane
View from above satellite
View from above satellite

Ground track
Ground track

The orbit data is extracted from the following two-line orbital elements,

1 27386U 02009A   21265.22300307  .00000036  00000-0  25485-4 0  9997
2 27386  98.1568 254.3714 0001232  85.6679 284.9759 14.38042850 24982
Epoch (UTC): 22 September 2021 05:21:07
Eccentricity: 0.0001232
inclination: 98.1568°
perigee height: 764 km
apogee height: 766 km
right ascension of ascending node: 254.3714°
argument of perigee: 85.6679°
revolutions per day: 14.38042850
mean anomaly at epoch: 284.9759°
orbit number at epoch: 2498

The dashed part of the orbit path shows where the satellite is in the earth's shadow,  

DLR